{"data":{"norad_id":37741,"epoch":"2026-05-25T04:24:49.773024Z","epoch_age_seconds":59032,"freshness":"FRESH","line1":"1 37741U 11033C   26145.18390941 -.00000086  00000+0  10184-3 0  9994","line2":"2 37741  52.0007 311.9461 0000705 113.4452  57.6368 12.62263329686376","mean_motion":12.62263329,"eccentricity":7.05e-5,"inclination_deg":52.0007,"raan_deg":311.9461,"arg_perigee_deg":113.4452,"mean_anomaly_deg":57.6368,"bstar":0.00010184,"rev_number":68637,"period_min":114.08079177431,"perigee_km":1413.0670558102,"apogee_km":1414.165693036,"semimajor_km":7791.7533744231,"source":"CELESTRAK","updated_at":"2026-05-25T13:38:23.042636Z"}}